Location: Middle West Pubnico, Nova Scotia, Canada
(43.6568°N, 65.8177°W)
Time: 17:44:38
(UTC-04:00)

X-37B - Visible Passes

Search period start: 21 January 2022 00:00
Search period end: 31 January 2022 00:00
Orbit: 334 x 337 km, 45.0° (Epoch: 11 January)

Date Brightness Start Highest point End Pass type
(mag) Time Alt. Az. Time Alt. Az. Time Alt. Az.
25 Jan 2.7 19:04:11 10° S 19:05:09 14° S 19:05:09 14° S visible
26 Jan 2.4 19:23:38 10° SW 19:24:58 22° SSW 19:24:58 22° SSW visible
27 Jan 2.5 18:09:38 10° S 18:11:29 16° SSE 18:13:19 10° ESE visible
27 Jan 3.1 19:43:47 10° WSW 19:44:42 18° WSW 19:44:42 18° WSW visible
28 Jan 1.3 18:29:04 10° SW 18:31:42 34° SSE 18:33:10 20° E visible
28 Jan 4.0 20:04:15 10° W 20:04:24 11° W 20:04:24 11° W visible
29 Jan 0.3 18:49:13 10° WSW 18:52:03 72° SSE 18:52:49 43° E visible
30 Jan 0.3 19:09:41 10° W 19:12:26 71° NNW 19:12:26 71° NNW visible
